Regional Weather Roundup
Issued by NWS

Home | Current Version | Previous Version | Graphics & Text | Print | Product List | Glossary On
Versions: 1 2 3 4 5 6 7 8 9 10 11 12 13 14 15 16 17 18 19 20 21 22 23 24 25 26 27 28 29 30 31 32 33 34 35 36 37 38 39 40 41 42 43 44 45 46 47 48 49 50
701
ASUS43 KMKX 281800
RWRWI

WISCONSIN REGIONAL WEATHER ROUNDUP
NATIONAL WEATHER SERVICE MILWAUKEE/SULLIVAN WI
100 PM CDT THU APR 28 2016

NOTE: "FAIR" INDICATES FEW OR NO CLOUDS BELOW 12,000 FEET WITH NO
SIGNIFICANT WEATHER AND/OR OBSTRUCTIONS TO VISIBILITY.

WIZ001-002-006>008-014>016-023>028-281900-
NORTHWEST WISCONSIN

CITY           SKY/WX    TMP DP  RH WIND       PRES   REMARKS
SUPERIOR ARPT  CLOUDY    40  32  73 E16G29    30.11R WCI  32
ASHLAND        CLOUDY    45  33  63 NE18      30.10S
6HR MIN TEMP:  38; 6HR MAX TEMP:  45;

HAYWARD        PTSUNNY   53  24  32 SE9       30.02S
6HR MIN TEMP:  41; 6HR MAX TEMP:  54;

SIREN          CLOUDY    51  21  31 NE10      30.03R
CUMBERLAND     CLOUDY    46  23  39 E10       30.01S
RICE LAKE      CLOUDY    49  22  34 E13G20    30.02S
CHETEK         CLOUDY    48  23  37 E8G17     30.01S
LADYSMITH      CLOUDY    52  25  35 NE8       30.03S
6HR MIN TEMP:  40; 6HR MAX TEMP:  52;

EAU CLAIRE     NOT AVBL
MENOMONIE      LGT RAIN  39  38  99 NE10      30.02R WCI  32
NEW RICHMOND   DRIZZLE   41  33  73 E12       30.02R
OSCEOLA        CLOUDY    42  35  77 NE5       30.05R
$$

WIZ003>005-009-010-017-018-281900-
NORTH CENTRAL WISCONSIN

CITY           SKY/WX    TMP DP  RH WIND       PRES   REMARKS
MANITOWISH WTR CLOUDY    44  21  40 CALM      30.04S
ARBOR VITAE    MOSUNNY   50  20  30 SE8       30.03F
WOODRUFF       MOSUNNY   50  20  30 SE8       30.03F
RHINELANDER    CLOUDY    49  18  29 E8        30.03F
6HR MIN TEMP:  37; 6HR MAX TEMP:  50;

EAGLE RIVER    MOSUNNY   49  16  26 E5        30.04R
LAND O LAKES   CLOUDY    52  15  23 E12G18    30.05S
PHILLIPS       CLOUDY    46  22  39 E10G16    30.03S
6HR MIN TEMP:  38; 6HR MAX TEMP:  46;

TOMAHAWK       CLOUDY    47  18  31 CALM      30.04R
MEDFORD        CLOUDY    46  22  39 E9        30.00S
MERRILL        CLOUDY    47  23  38 E15       30.03R
$$

WIZ029-030-035-036-043>047-281900-
CENTRAL WISCONSIN

CITY           SKY/WX    TMP DP  RH WIND       PRES   REMARKS
WAUSAU         LGT RAIN  46  25  43 E10       30.01R
6HR MIN TEMP:  40; 6HR MAX TEMP:  47; 6HR PCP: TRACE;

MOSINEE        LGT RAIN  37  34  87 E7        30.03R WCI  32
MARSHFIELD     LGT RAIN  40  34  79 E10       30.00R WCI  33
6HR MIN TEMP:  38; 6HR MAX TEMP:  41; 6HR PCP:  0.10;

STEVENS POINT  LGT RAIN  38  33  81 E14G21    30.02S WCI  30
WAUPACA        RAIN      39  34  81 NE7       30.04R WCI  34
6HR MIN TEMP:  39; 6HR MAX TEMP:  42; 6HR PCP:  0.04;

WAUTOMA        NOT AVBL
WISC RAPIDS    LGT RAIN  41  38  89 E13G22    30.01S
6HR MIN TEMP:  38; 6HR MAX TEMP:  41; 6HR PCP:  0.16;

CAMP DOUGLAS   LGT RAIN  39  39 100 E18       29.97R WCI  30
$$

WIZ011>013-019>022-031-037>040-048>050-281900-
NORTHEAST WISCONSIN

CITY           SKY/WX    TMP DP  RH WIND       PRES   REMARKS
ANTIGO         CLOUDY    45  24  42 E10       30.03S
SHAWANO        CLOUDY    47  29  49 E10       30.06S
6HR MIN TEMP:  38; 6HR MAX TEMP:  48;

OCONTO         CLOUDY    46  29  53 E9        30.06R
STURGEON BAY   CLOUDY    43  27  52 E8        30.08S
6HR MIN TEMP:  37; 6HR MAX TEMP:  45;

GREEN BAY      LGT RAIN  43  31  62 E12       30.06R
6HR MIN TEMP:  40; 6HR MAX TEMP:  44; 6HR PCP: TRACE;

MANITOWOC      NOT AVBL
APPLETON       DRIZZLE   39  32  75 NE12G20   30.01S WCI  32
CLINTONVILLE   DRIZZLE   41  32  70 E8        30.05S
OSHKOSH        CLOUDY    41  34  76 NE14      30.00F
6HR MIN TEMP:  40; 6HR MAX TEMP:  44; 6HR PCP:  0.04;

$$

WIZ032>034-041-042-053>061-281900-
SOUTHWEST WISCONSIN

CITY           SKY/WX    TMP DP  RH WIND       PRES   REMARKS
LA CROSSE      CLOUDY    43  33  68 E12       29.96R
6HR MIN TEMP:  41; 6HR MAX TEMP:  45; 6HR PCP: TRACE;

SPARTA         LGT RAIN  40  37  90 NE9       29.98R WCI  34
VIROQUA        CLOUDY    40  37  87 E12G17    29.93R WCI  33
BOSCOBEL       CLOUDY    45  39  79 NE9       29.93R
6HR MIN TEMP:  45; 6HR MAX TEMP:  47;

PRAIRIE DU CHI CLOUDY    46  39  75 E7        29.91R
PLATTEVILLE    CLOUDY    44  42  91 E13       29.90R
$$

WIZ056-057-062-063-064-067-068-281900-
SOUTH CENTRAL WISCONSIN

CITY           SKY/WX    TMP DP  RH WIND       PRES   REMARKS
REEDSBURG      CLOUDY    40  38  95 E10G18    29.95R WCI  33
BARABOO/DELLS  DRIZZLE   40  38  93 NE12G18   29.95R WCI  33
LONE ROCK      NOT AVBL
MINERAL POINT  CLOUDY    45  41  87 E12       29.90S
MADISON        CLOUDY    41  37  86 E12       29.95R
6HR MIN TEMP:  40; 6HR MAX TEMP:  43; 6HR PCP:  0.18;

MIDDLETON      CLOUDY    43  38  85 E13       29.94R
WATERTOWN      CLOUDY    41  37  85 E14G21    29.95R
MONROE         CLOUDY    43  37  81 E10G16    29.90S
JANESVILLE     CLOUDY    46  37  71 E12G17    29.91R
$$

WIZ051-052-058>065-066-070>072-281900-
SOUTHEAST WISCONSIN

CITY           SKY/WX    TMP DP  RH WIND       PRES   REMARKS
MILWAUKEE      CLOUDY    40  37  89 NE17      29.96S WCI  31
6HR MIN TEMP:  38; 6HR MAX TEMP:  42; 6HR PCP:  0.01;

WAUKESHA       CLOUDY    37  34  87 E14       29.97R WCI  29
MILWAUKEE/TIMM CLOUDY    37  34  87 E10G20    29.98S FOG     WCI  30
RACINE         CLOUDY    42  37  82 NE13G20   29.97S
6HR MIN TEMP:  39; 6HR MAX TEMP:  43; 6HR PCP: TRACE;

BURLINGTON     CLOUDY    42  36  79 E14       29.93R
KENOSHA        CLOUDY    42  36  79 E16       29.94R
6HR MIN TEMP:  39; 6HR MAX TEMP:  44;

FOND DU LAC    CLOUDY    42  33  70 E14       30.00S
6HR MIN TEMP:  39; 6HR MAX TEMP:  44; 6HR PCP:  0.06;

SHEBOYGAN      LGT RAIN  38  35  89 E17G30    30.03R FOG     WCI  28
6HR MIN TEMP:  38; 6HR MAX TEMP:  43; 6HR PCP: TRACE;

WEST BEND      CLOUDY    37  36  93 E15       29.98S FOG     WCI  28
JUNEAU         LGT RAIN  38  36  93 E17       29.97S WCI  29
$$

LSZ147-162-281900-
LAKE SUPERIOR

STATION/POSITION TIME  TEMP    WIND        PRES    WAVE
                       AIR SEA DIR/SP/G            HT/PER
                 (UTC) (F)     (DEG/KT/KT) (MB)    (FT/S)
W MID LAKE BUOY  1650   37 36   50/ 19/ 23 1020.9R   3/ 4
DEVILS ISLAND    1700   37      60/ 24/ 27 1020.9R
SAXON HARBOR     1700   39      50/ 15/ 18 1018.6R
$$

LMZ867-665-643>646-281900-
LAKE MICHIGAN

STATION/POSITION TIME  TEMP    WIND        PRES    WAVE
                       AIR SEA DIR/SP/G            HT/PER
                 (UTC) (F)     (DEG/KT/KT) (MB)    (FT/S)
CHAMBERS ISLAND  1740   43      50/ 10/ 13 1018.6R
N MID LAKE BUOY  1650   39 38   70/ 12/ 16 1018.5R   2/ 4
NORTHPORT PIER   1700   40      70/ 15/ 18 1018.6R
ALGOMA LAKESHORE 1615           60/ 15/ 18   N/A
KEWAUNEE LAKESHO 1700   40      30/ 10/ 12 1016.8R
SHEBOYGAN LAKESH 1700   40      70/ 10/ 11 1017.3R
PORT WASHINGTON  1700   40      80/ 16/ 19 1016.6R
S MID LAKE BUOY  1650   39 40   80/ 16/ 19 1013.7S   4/ 5
KENOSHA   LAKESH 1700   40      60/ 15/ 18 1013.9S
$$

TC  - TEMPERATURE IN CELSIUS
VSB - VISIBILITY IN STATUTE MILES
WCI - WIND CHILL INDEX
HX  - HEAT INDEX





USA.gov is the U.S. government's official web portal to all federal, state and local government web resources and services.